sat.trackr.live / text

‹ back to catalog

CLUSTER II-FM7 (SAMBA)

NORAD 26410 · 2000-041A

PAYLOAD ACTIVE UNKNOWN

§ Identity

Operator
Country
ESA
Launch date
2000-07-16
Launch site
TYMSC
Launch vehicle
Mass (kg)
RCS (m²)
2.00

Purposes: science

External: N2YO · Heavens-Above · Gunter

§ Orbital elements

Epoch: 2026-08-16T08:33:20.293632Z

Period
3,208.76 min
Inclination
149.5559°
Eccentricity
0.9119992
Mean motion
0.44877167 rev/d
Perigee alt
-36.4 km
Apogee alt
131,408.1 km
Semi-major
72,064.0 km
B*
0.0000e+0
RAAN
61.8704°
Arg perigee
279.7536°
Mean anomaly
359.6603°
Rev number
2,057

§ Raw data

CLUSTER II-FM7 (SAMBA)1 26410U 00041A   26228.35648488  .00204628 -13535-2  00000+0 0  99952 26410 149.5559  61.8704 9119992 279.7536 359.6603  0.44877167 20578

JSON: /api/v1/satellites/26410 · /tle

For live sub-satellite position, see the globe view (requires WebGL).

§ Visibility from observer

Set your observer location to see the next 7 days of passes ≥ 10°. The values pass through the URL so the page stays shareable.

No JS? Fill the form by hand. The geolocation button needs JavaScript.

§ Radio — SatNOGS DB

ModeDescriptionDownlinkUplink
FM S-band 2.277 GHz

1 transmitter · refreshed weekly from db.satnogs.org